| time (UTC) | temp C | wind direction | speed KPH | gust KPH | rain 1hr cm | rain 24hr cm | rain mn cm | humidity % | barometer mb |
| 20260507190010 | 16 | 70 | 0.0 | 0.0 | 0.00 | 0.41 | 0.41 | 78 | 1011.3 |
| 20260507184507 | 16 | 79 | 0.0 | 0.0 | 0.00 | 0.41 | 0.41 | 75 | 1011.1 |
| 20260507183006 | 16 | 77 | 0.0 | 0.0 | 0.00 | 0.41 | 0.41 | 74 | 1010.9 |
| 20260507181504 | 17 | 96 | 0.0 | 0.0 | 0.00 | 0.41 | 0.41 | 74 | 1010.7 |
| 20260507180001 | 17 | 93 | 0.0 | 0.0 | 0.00 | 0.41 | 0.41 | 73 | 1010.3 |
| 20260507174503 | 17 | 71 | 0.0 | 0.0 | 0.00 | 0.41 | 0.41 | 72 | 1010.2 |
| 20260507173104 | 18 | 84 | 0.0 | 0.0 | 0.00 | 0.41 | 0.41 | 70 | 1010.0 |
| 20260507171612 | 18 | 136 | 0.0 | 0.0 | 0.00 | 0.41 | 0.41 | 67 | 1009.9 |
| 20260507170100 | 19 | 144 | 0.0 | 0.0 | 0.00 | 0.41 | 0.41 | 67 | 1010.0 |
| 20260507164602 | 19 | 163 | 0.0 | 0.0 | 0.00 | 0.41 | 0.41 | 65 | 1010.0 |
| 20260507163158 | 19 | 71 | 0.0 | 1.6 | 0.00 | 0.41 | 0.41 | 61 | 1009.8 |
| 20260507161602 | 19 | 107 | 0.0 | 0.0 | 0.00 | 0.41 | 0.41 | 54 | 1009.8 |
| 20260507160058 | 20 | 114 | 0.0 | 0.0 | 0.00 | 0.41 | 0.41 | 55 | 1009.7 |
| 20260507154556 | 19 | 82 | 0.0 | 9.7 | 0.00 | 0.41 | 0.41 | 60 | 1009.7 |
| 20260507153103 | 20 | 157 | 0.0 | 9.7 | 0.00 | 0.41 | 0.41 | 61 | 1009.5 |
| 20260507151555 | 21 | 11 | 0.0 | 0.0 | 0.00 | 0.41 | 0.41 | 55 | 1009.2 |
| 20260507150055 | 21 | 10 | 0.0 | 0.0 | 0.00 | 0.61 | 0.41 | 56 | 1009.1 |
| 20260507144555 | 20 | 317 | 0.0 | 0.0 | 0.28 | 0.61 | 0.41 | 68 | 1009.0 |
| 20260507143055 | 19 | 57 | 0.0 | 0.0 | 0.41 | 0.61 | 0.41 | 68 | 1009.0 |
| 20260507141556 | 18 | 65 | 0.0 | 0.0 | 0.41 | 0.61 | 0.41 | 76 | 1009.1 |
| 20260507140104 | 15 | 45 | 0.0 | 0.0 | 0.41 | 0.94 | 0.41 | 82 | 1009.6 |
| 20260507134552 | 20 | 255 | 3.2 | 25.7 | 0.08 | 0.61 | 0.08 | 64 | 1010.1 |
| 20260507133055 | 21 | 244 | 0.0 | 0.0 | 0.00 | 0.53 | 0.00 | 55 | 1009.2 |
| 20260507131549 | 21 | 251 | 0.0 | 1.6 | 0.00 | 0.53 | 0.00 | 53 | 1009.2 |
| 20260507124611 | 22 | 246 | 0.0 | 8.0 | 0.00 | 0.58 | 0.00 | 53 | 1009.3 |
| 20260507123048 | 22 | 247 | 0.0 | 0.0 | 0.00 | 0.58 | 0.00 | 53 | 1009.3 |
| 20260507121546 | 22 | 236 | 0.0 | 6.4 | 0.00 | 0.58 | 0.00 | 50 | 1009.5 |
| 20260507120045 | 22 | 209 | 0.0 | 6.4 | 0.00 | 0.58 | 0.00 | 52 | 1009.4 |
| 20260507114605 | 21 | 257 | 3.2 | 12.9 | 0.00 | 0.58 | 0.00 | 51 | 1009.7 |
| 20260507113042 | 20 | 246 | 0.0 | 4.8 | 0.00 | 0.58 | 0.00 | 55 | 1009.6 |
| 20260507111542 | 21 | 244 | 0.0 | 9.7 | 0.00 | 0.58 | 0.00 | 54 | 1009.7 |
| 20260507110044 | 21 | 229 | 0.0 | 6.4 | 0.00 | 0.61 | 0.00 | 55 | 1009.8 |
| 20260507104548 | 21 | 240 | 0.0 | 9.7 | 0.00 | 0.61 | 0.00 | 57 | 1009.9 |
| 20260507103038 | 21 | 309 | 0.0 | 3.2 | 0.00 | 0.61 | 0.00 | 54 | 1010.1 |
| 20260507101536 | 20 | 238 | 1.6 | 6.4 | 0.00 | 0.61 | 0.00 | 60 | 1010.3 |
| 20260507100037 | 20 | 234 | 0.0 | 6.4 | 0.00 | 0.61 | 0.00 | 59 | 1010.2 |
| 20260507094533 | 20 | 227 | 0.0 | 1.6 | 0.00 | 0.61 | 0.00 | 64 | 1010.4 |
| 20260507093037 | 19 | 277 | 0.0 | 1.6 | 0.00 | 0.61 | 0.00 | 66 | 1010.4 |
| 20260507091538 | 18 | 228 | 0.0 | 3.2 | 0.00 | 0.61 | 0.00 | 63 | 1010.3 |
| 20260507090030 | 19 | 225 | 0.0 | 1.6 | 0.00 | 0.61 | 0.00 | 64 | 1010.3 |
| 20260507084532 | 19 | 283 | 0.0 | 0.0 | 0.00 | 0.61 | 0.00 | 66 | 1010.3 |
| 20260507083029 | 19 | 253 | 0.0 | 0.0 | 0.00 | 0.61 | 0.00 | 63 | 1010.2 |
| 20260507081526 | 18 | 207 | 0.0 | 0.0 | 0.00 | 0.61 | 0.00 | 70 | 1010.2 |
| 20260507080024 | 18 | 175 | 0.0 | 0.0 | 0.00 | 0.61 | 0.00 | 71 | 1010.2 |
| 20260507074524 | 18 | 178 | 0.0 | 0.0 | 0.00 | 0.61 | 0.00 | 69 | 1010.1 |
| 20260507073020 | 17 | 249 | 0.0 | 0.0 | 0.00 | 0.61 | 0.00 | 71 | 1010.0 |
| 20260507071520 | 17 | 242 | 0.0 | 0.0 | 0.00 | 0.61 | 0.00 | 70 | 1010.0 |
| 20260507070014 | 16 | 254 | 0.0 | 0.0 | 0.00 | 0.64 | 0.00 | 73 | 1009.9 |
| 20260507064513 | 16 | 321 | 0.0 | 0.0 | 0.00 | 0.64 | 0.00 | 74 | 1009.9 |
| 20260507063025 | 16 | 319 | 0.0 | 0.0 | 0.00 | 0.64 | 0.00 | 75 | 1009.8 |
| 20260507061511 | 16 | 307 | 0.0 | 0.0 | 0.00 | 0.64 | 0.00 | 75 | 1009.8 |
| 20260507060012 | 16 | 313 | 0.0 | 0.0 | 0.00 | 0.81 | 0.00 | 78 | 1009.8 |
| 20260507054503 | 15 | 312 | 0.0 | 0.0 | 0.00 | 0.81 | 0.00 | 82 | 1009.7 |
| 20260507053101 | 13 | 312 | 0.0 | 0.0 | 0.00 | 0.81 | 0.00 | 86 | 1009.6 |
| 20260507051602 | 13 | 311 | 0.0 | 0.0 | 0.00 | 0.81 | 0.00 | 88 | 1009.3 |
| 20260507050101 | 12 | 311 | 0.0 | 0.0 | 0.00 | 0.84 | 0.00 | 90 | 1009.3 |
| 20260507044555 | 12 | 311 | 0.0 | 0.0 | 0.00 | 0.84 | 0.00 | 90 | 1009.0 |
| 20260507043054 | 12 | 312 | 0.0 | 0.0 | 0.00 | 0.84 | 0.00 | 91 | 1008.9 |
| 20260507041552 | 11 | 331 | 0.0 | 0.0 | 0.00 | 0.84 | 0.00 | 90 | 1008.6 |
| 20260507040049 | 12 | 333 | 0.0 | 0.0 | 0.00 | 0.84 | 0.00 | 90 | 1008.6 |
| 20260507034547 | 12 | 52 | 0.0 | 0.0 | 0.00 | 0.84 | 0.00 | 90 | 1008.4 |
| 20260507033047 | 13 | 52 | 0.0 | 0.0 | 0.00 | 0.84 | 0.00 | 90 | 1008.4 |
| 20260507031546 | 13 | 52 | 0.0 | 0.0 | 0.00 | 0.84 | 0.00 | 91 | 1008.5 |
| 20260507030045 | 14 | 52 | 0.0 | 0.0 | 0.00 | 0.84 | 0.00 | 91 | 1008.5 |
| 20260507024544 | 13 | 52 | 0.0 | 0.0 | 0.00 | 0.84 | 0.00 | 91 | 1008.4 |
| 20260507023043 | 13 | 46 | 0.0 | 0.0 | 0.00 | 0.84 | 0.00 | 90 | 1008.3 |
| 20260507021544 | 13 | 75 | 0.0 | 0.0 | 0.00 | 0.84 | 0.00 | 90 | 1008.3 |
| 20260507020045 | 13 | 69 | 0.0 | 0.0 | 0.00 | 0.84 | 0.00 | 91 | 1008.4 |
| 20260507014550 | 13 | 69 | 0.0 | 0.0 | 0.00 | 0.84 | 0.00 | 92 | 1008.6 |
| 20260507013050 | 13 | 69 | 0.0 | 0.0 | 0.00 | 0.84 | 0.00 | 92 | 1008.6 |
| 20260507011540 | 13 | 69 | 0.0 | 0.0 | 0.00 | 0.84 | 0.00 | 92 | 1008.4 |
| 20260507010052 | 13 | 69 | 0.0 | 0.0 | 0.00 | 0.84 | 0.00 | 92 | 1008.5 |
| 20260507004539 | 12 | 80 | 0.0 | 0.0 | 0.00 | 0.84 | 0.00 | 92 | 1008.4 |
| 20260507003039 | 12 | 80 | 0.0 | 0.0 | 0.00 | 0.84 | 0.00 | 92 | 1008.3 |
| 20260507001538 | 12 | 80 | 0.0 | 0.0 | 0.00 | 0.84 | 0.00 | 91 | 1008.3 |
| 20260507000036 | 12 | 80 | 0.0 | 0.0 | 0.00 | 0.84 | 0.00 | 91 | 1008.3 |
| 20260506234537 | 13 | 80 | 0.0 | 0.0 | 0.00 | 0.84 | 0.00 | 90 | 1008.3 |
| 20260506233053 | 13 | 80 | 0.0 | 0.0 | 0.00 | 0.84 | 0.00 | 90 | 1008.4 |
| 20260506231536 | 13 | 80 | 0.0 | 0.0 | 0.00 | 0.84 | 0.00 | 89 | 1008.5 |
| 20260506230030 | 13 | 80 | 0.0 | 0.0 | 0.00 | 0.84 | 0.00 | 89 | 1008.4 |
| 20260506224530 | 13 | 80 | 0.0 | 0.0 | 0.00 | 0.84 | 0.00 | 89 | 1008.2 |
| 20260506223028 | 13 | 80 | 0.0 | 0.0 | 0.00 | 0.84 | 0.00 | 89 | 1008.3 |
| 20260506221526 | 13 | 80 | 0.0 | 0.0 | 0.00 | 0.84 | 0.00 | 89 | 1008.4 |
| 20260506220028 | 14 | 80 | 0.0 | 0.0 | 0.00 | 0.84 | 0.84 | 88 | 1008.3 |
| 20260506214517 | 14 | 80 | 0.0 | 0.0 | 0.00 | 0.84 | 0.84 | 88 | 1008.4 |
| 20260506213013 | 14 | 80 | 0.0 | 0.0 | 0.00 | 0.84 | 0.84 | 88 | 1008.3 |
| 20260506211513 | 15 | 80 | 0.0 | 0.0 | 0.00 | 0.84 | 0.84 | 88 | 1008.3 |
| 20260506210011 | 15 | 80 | 0.0 | 0.0 | 0.00 | 0.84 | 0.84 | 88 | 1008.3 |
| 20260506204601 | 15 | 80 | 0.0 | 0.0 | 0.00 | 0.84 | 0.84 | 88 | 1008.2 |
| 20260506203056 | 14 | 80 | 0.0 | 0.0 | 0.00 | 0.84 | 0.84 | 88 | 1008.2 |
| 20260506201552 | 15 | 80 | 0.0 | 0.0 | 0.00 | 0.84 | 0.84 | 87 | 1008.1 |
| 20260506200049 | 15 | 80 | 0.0 | 0.0 | 0.00 | 0.84 | 0.84 | 87 | 1008.0 |
| 20260506194548 | 15 | 80 | 0.0 | 0.0 | 0.00 | 0.84 | 0.84 | 87 | 1007.8 |
| 20260506193038 | 15 | 82 | 0.0 | 0.0 | 0.00 | 0.84 | 0.84 | 88 | 1007.7 |
| 20260506191534 | 15 | 84 | 0.0 | 0.0 | 0.00 | 0.84 | 0.84 | 88 | 1007.7 |